When you browse on this site, cookies collect data to enhance your experience and personalize the content and advertising you see.
Visit our Privacy Policy to learn more. By continuing to use the site, you agree to this use of cookies and data.
  • In Romania
  • List of Countries
  • For 7 days
  • Water Temperature
  • Satellite Maps
  • Weather Map
  • Weather Widgets
  • user-avatar
    Login

    Hourly Weather Savostino

    Today, 20 February, Wednesday

    Time Temperature Precipitation Wind Pressure Humidity
    00:00 0°C° 0.1 mm 5 mps 733 mmHg 92%
    01:00 0°C° 0.1 mm 4 mps 733 mmHg 92%
    02:00 0°C° 0 mm 5 mps 732 mmHg 94%
    03:00 0°C° 0.1 mm 5 mps 732 mmHg 93%
    04:00 0°C° 0.1 mm 5 mps 732 mmHg 93%
    05:00 0°C° 0.1 mm 4 mps 731 mmHg 93%
    06:00 0°C° 0.1 mm 4 mps 731 mmHg 92%
    07:00 0°C° 0.1 mm 5 mps 731 mmHg 92%
    08:00 0°C° 0.1 mm 5 mps 731 mmHg 91%
    09:00 0°C° 0.1 mm 5 mps 731 mmHg 91%
    10:00 0°C° 0.1 mm 5 mps 731 mmHg 90%
    11:00 0°C° 0.1 mm 5 mps 731 mmHg 89%
    12:00 0°C° 0.2 mm 5 mps 730 mmHg 89%
    13:00 0°C° 0.2 mm 5 mps 730 mmHg 88%
    14:00 +1°C° 0.2 mm 5 mps 730 mmHg 88%
    15:00 0°C° 0.4 mm 5 mps 729 mmHg 88%
    16:00 0°C° 0.4 mm 5 mps 729 mmHg 88%
    17:00 0°C° 0.4 mm 5 mps 729 mmHg 88%
    18:00 -1°C° 0.5 mm 5 mps 729 mmHg 85%
    19:00 -1°C° 0.5 mm 5 mps 729 mmHg 83%
    20:00 -3°C° 0.5 mm 6 mps 729 mmHg 80%
    21:00 -4°C° 0.1 mm 6 mps 729 mmHg 82%
    22:00 -5°C° 0.1 mm 6 mps 730 mmHg 83%
    23:00 -6°C° 0.1 mm 6 mps 731 mmHg 85%

    Tomorrow, 21 February, Thursday

    Time Temperature Precipitation Wind Pressure Humidity
    00:00 -6°C° 0.1 mm 6 mps 731 mmHg 83%
    01:00 -8°C° 0.1 mm 6 mps 732 mmHg 81%
    02:00 -9°C° 0.1 mm 6 mps 732 mmHg 79%
    03:00 -9°C° 0.2 mm 6 mps 732 mmHg 79%
    04:00 -9°C° 0.2 mm 6 mps 733 mmHg 78%
    05:00 -9°C° 0.2 mm 6 mps 733 mmHg 78%
    06:00 -9°C° 0.2 mm 7 mps 733 mmHg 79%
    07:00 -9°C° 0.2 mm 7 mps 734 mmHg 80%
    08:00 -9°C° 0.2 mm 7 mps 735 mmHg 81%
    09:00 -9°C° 0.1 mm 7 mps 735 mmHg 79%
    10:00 -8°C° 0.1 mm 7 mps 736 mmHg 77%
    11:00 -8°C° 0.1 mm 7 mps 737 mmHg 75%
    12:00 -8°C° 0.1 mm 7 mps 738 mmHg 74%
    13:00 -8°C° 0.1 mm 7 mps 739 mmHg 73%
    14:00 -9°C° 0.1 mm 6 mps 739 mmHg 71%
    15:00 -9°C° 0 mm 6 mps 740 mmHg 72%
    16:00 -10°C° 0 mm 6 mps 741 mmHg 73%
    17:00 -11°C° 0 mm 6 mps 742 mmHg 73%
    18:00 -11°C° 0 mm 5 mps 742 mmHg 74%
    19:00 -12°C° 0 mm 5 mps 743 mmHg 74%
    20:00 -12°C° 0 mm 5 mps 744 mmHg 74%
    21:00 -13°C° 0 mm 5 mps 744 mmHg 75%
    22:00 -12°C° 0 mm 4 mps 745 mmHg 75%
    23:00 -12°C° 0 mm 4 mps 745 mmHg 75%

    Day after tomorrow, 22 February, Friday

    Time Temperature Precipitation Wind Pressure Humidity
    00:00 -14°C° 0 mm 4 mps 746 mmHg 76%
    01:00 -14°C° 0 mm 4 mps 746 mmHg 77%
    02:00 -14°C° 0 mm 4 mps 747 mmHg 78%
    03:00 -15°C° 0 mm 4 mps 747 mmHg 78%
    04:00 -15°C° 0 mm 4 mps 747 mmHg 78%
    05:00 -15°C° 0 mm 4 mps 748 mmHg 78%
    06:00 -15°C° 0 mm 5 mps 748 mmHg 77%
    07:00 -15°C° 0 mm 5 mps 749 mmHg 77%
    08:00 -15°C° 0 mm 5 mps 749 mmHg 76%
    09:00 -15°C° 0 mm 6 mps 750 mmHg 73%
    10:00 -14°C° 0 mm 6 mps 750 mmHg 70%
    11:00 -13°C° 0 mm 7 mps 750 mmHg 67%
    12:00 -12°C° 0 mm 7 mps 750 mmHg 63%
    13:00 -12°C° 0 mm 7 mps 751 mmHg 59%
    14:00 -12°C° 0 mm 7 mps 751 mmHg 55%
    15:00 -11°C° 0 mm 6 mps 751 mmHg 60%
    16:00 -11°C° 0 mm 6 mps 752 mmHg 65%
    17:00 -12°C° 0 mm 5 mps 752 mmHg 70%
    18:00 -12°C° 0 mm 5 mps 753 mmHg 71%
    19:00 -13°C° 0 mm 5 mps 753 mmHg 73%
    20:00 -13°C° 0 mm 5 mps 754 mmHg 74%
    21:00 -14°C° 0 mm 5 mps 754 mmHg 76%
    22:00 -14°C° 0 mm 4 mps 754 mmHg 78%
    23:00 -14°C° 0 mm 4 mps 755 mmHg 80%

    23 February, Saturday

    Time Temperature Precipitation Wind Pressure Humidity
    00:00 -15°C° 0 mm 4 mps 755 mmHg 81%
    01:00 -15°C° 0 mm 4 mps 756 mmHg 82%
    02:00 -15°C° 0 mm 4 mps 756 mmHg 83%
    03:00 -16°C° 0 mm 4 mps 756 mmHg 85%
    04:00 -15°C° 0 mm 3 mps 756 mmHg 86%
    05:00 -15°C° 0 mm 3 mps 756 mmHg 87%
    06:00 -15°C° 0 mm 3 mps 757 mmHg 87%
    07:00 -15°C° 0 mm 3 mps 757 mmHg 87%
    08:00 -15°C° 0 mm 3 mps 757 mmHg 86%
    09:00 -14°C° 0 mm 3 mps 757 mmHg 81%
    10:00 -13°C° 0 mm 3 mps 758 mmHg 76%
    11:00 -12°C° 0 mm 3 mps 758 mmHg 70%
    12:00 -10°C° 0 mm 3 mps 757 mmHg 69%
    13:00 -9°C° 0 mm 3 mps 757 mmHg 68%
    14:00 -9°C° 0 mm 3 mps 757 mmHg 67%
    15:00 -8°C° 0 mm 2 mps 757 mmHg 70%
    16:00 -8°C° 0 mm 2 mps 756 mmHg 72%
    17:00 -8°C° 0 mm 2 mps 756 mmHg 74%
    18:00 -8°C° 0 mm 2 mps 756 mmHg 76%
    19:00 -8°C° 0 mm 2 mps 756 mmHg 78%
    20:00 -7°C° 0 mm 1 mps 756 mmHg 80%
    21:00 -8°C° 0.1 mm 2 mps 755 mmHg 82%
    22:00 -8°C° 0.1 mm 2 mps 755 mmHg 84%
    23:00 -8°C° 0.1 mm 2 mps 754 mmHg 86%

    24 February, Sunday

    Time Temperature Precipitation Wind Pressure Humidity
    00:00 -8°C° 0.2 mm 2 mps 754 mmHg 88%
    01:00 -7°C° 0.2 mm 2 mps 754 mmHg 90%
    02:00 -7°C° 0.2 mm 2 mps 754 mmHg 92%
    03:00 -7°C° 0.3 mm 2 mps 753 mmHg 93%
    04:00 -7°C° 0.3 mm 2 mps 753 mmHg 94%
    05:00 -7°C° 0.3 mm 2 mps 753 mmHg 94%
    06:00 -6°C° 0.1 mm 2 mps 753 mmHg 95%
    07:00 -4°C° 0.1 mm 1 mps 753 mmHg 95%
    08:00 -4°C° 0.1 mm 1 mps 753 mmHg 95%
    09:00 -3°C° 0 mm 1 mps 753 mmHg 93%
    10:00 -2°C° 0 mm 1 mps 754 mmHg 91%
    11:00 -1°C° 0 mm 1 mps 754 mmHg 89%
    12:00 0°C° 0 mm 1 mps 754 mmHg 89%
    13:00 0°C° 0 mm 1 mps 754 mmHg 88%
    14:00 +1°C° 0 mm 1 mps 754 mmHg 88%
    15:00 +1°C° 0 mm 1 mps 754 mmHg 91%
    16:00 0°C° 0 mm 1 mps 754 mmHg 93%
    17:00 0°C° 0 mm 1 mps 754 mmHg 95%
    18:00 -1°C° 0 mm 1 mps 754 mmHg 96%
    19:00 -1°C° 0 mm 1 mps 754 mmHg 96%
    20:00 -1°C° 0 mm 1 mps 754 mmHg 97%
    21:00 -1°C° 0 mm 1 mps 754 mmHg 97%
    22:00 -1°C° 0 mm 1 mps 754 mmHg 97%
    23:00 -1°C° 0 mm 1 mps 754 mmHg 97%

    25 February, Monday

    Time Temperature Precipitation Wind Pressure Humidity
    00:00 -3°C° 0 mm 2 mps 753 mmHg 96%
    01:00 -3°C° 0 mm 2 mps 753 mmHg 95%
    02:00 -3°C° 0 mm 2 mps 753 mmHg 94%
    03:00 -3°C° 0 mm 2 mps 752 mmHg 93%
    04:00 -2°C° 0 mm 2 mps 752 mmHg 93%
    05:00 -2°C° 0 mm 3 mps 751 mmHg 92%
    06:00 -2°C° 0 mm 3 mps 751 mmHg 93%
    07:00 -2°C° 0 mm 3 mps 750 mmHg 94%
    08:00 -2°C° 0 mm 3 mps 750 mmHg 94%
    09:00 -1°C° 0.1 mm 3 mps 750 mmHg 94%
    10:00 -1°C° 0.1 mm 3 mps 749 mmHg 93%
    11:00 0°C° 0.1 mm 3 mps 749 mmHg 92%
    12:00 -1°C° 0 mm 4 mps 749 mmHg 90%
    13:00 -1°C° 0 mm 4 mps 748 mmHg 87%
    14:00 -1°C° 0 mm 4 mps 748 mmHg 85%
    15:00 -1°C° 0.1 mm 4 mps 748 mmHg 86%
    16:00 -2°C° 0.1 mm 4 mps 748 mmHg 87%
    17:00 -2°C° 0.1 mm 4 mps 748 mmHg 87%
    18:00 -1°C° 0 mm 3 mps 748 mmHg 88%
    19:00 -1°C° 0 mm 3 mps 748 mmHg 88%
    20:00 -2°C° 0 mm 3 mps 748 mmHg 88%
    21:00 -2°C° 0 mm 3 mps 748 mmHg 89%
    22:00 -4°C° 0 mm 3 mps 748 mmHg 91%
    23:00 -4°C° 0 mm 3 mps 748 mmHg 93%
    Show more